Temp
11 11 11 11 11 10 10 10 10 10 11 10 9 10 10 10 11 11 11 11 11 11 11 11 11 11 11 11 11 11 10 10 10 10 10 11 10 11 10 10 10 10 10 10 10 10 10 10 10 10 10 10 10 10 10 10 10 10 10 10 10 10 10
11 11 11 11 11 10 10 10 10 10 10 10 9 9 10 10 11 12 11 11 11 11 11 11 11 11 11 11 11 11 10 10 10 10 10 11 11 10 11 10 10 10 10 10 10 10 10 10 10 10 10 10 10 10 10 10 10 10 10 10 10 10 10
11 11 11 11 11 10 10 11 10 10 10 10 10 9 10 10 11 12 11 11 11 11 11 11 11 11 11 11 11 11 11 10 10 10 10 11 11 10 10 10 10 10 10 10 10 10 10 10 10 10 10 10 10 10 10 10 10 10 10 10 10 10 10
10 10 10 11 11 10 10 10 10 10 10 10 9 10 10 10 11 11 11 11 11 11 11 11 11 11 11 11 11 11 11 11 10 10 10 10 11 10 10 10 10 10 10 10 10 10 10 10 10 10 11 10 10 10 10 10 10 10 10 10 10 10 11
10 10 10 11 10 10 10 10 10 10 10 10 9 9 10 10 10 11 11 11 11 11 11 11 11 11 11 11 11 11 11 11 11 10 10 10 10 11 10 10 10 10 10 10 10 10 10 11 11 11 11 11 11 11 11 11 11 10 10 10 10 11 10
10 10 11 11 11 10 11 10 10 10 10 10 10 10 10 10 10 11 11 11 11 11 11 11 11 11 11 11 11 11 11 11 11 11 10 10 11 11 11 10 10 10 10 10 10 10 10 10 11 11 11 11 11 11 11 11 11 11 11 11 10 11 11
10 10 11 11 11 11 11 11 10 10 10 10 10 10 10 10 10 10 10 10 11 11 12 11 11 11 11 11 11 11 11 11 11 11 11 11 11 11 11 10 10 10 10 10 10 10 10 10 10 11 11 11 11 11 11 11 11 11 11 11 11 11 11
10 11 11 12 12 11 11 10 10 10 10 10 10 10 10 10 10 10 10 10 10 11 11 12 11 11 11 11 11 11 11 11 11 11 11 11 11 11 11 11 10 10 10 10 10 10 10 10 10 10 11 11 11 11 11 11 11 11 11 11 11 11 11
11 11 11 11 12 12 11 11 11 11 10 10 10 10 10 10 10 10 10 10 10 10 11 11 11 11 10 11 11 11 11 11 11 10 10 11 11 11 11 11 10 10 10 10 10 10 10 10 10 10 10 10 11 11 11 11 11 11 11 11 11 11 11
11 12 12 11 11 11 11 11 11 11 11 10 10 10 10 10 10 10 10 10 10 10 10 11 10 10 10 10 10 10 11 11 11 11 10 11 11 11 11 11 11 10 10 10 10 10 10 10 10 10 10 10 10 10 11 11 11 11 11 11 11 11 11
11 11 11 11 10 10 11 11 11 11 11 11 10 10 10 10 10 10 10 10 10 10 10 9 9 9 10 10 10 10 10 10 10 11 11 11 11 11 11 11 11 11 10 10 10 10 10 10 10 10 10 10 10 10 10 10 11 11 11 11 11 11 11
11 10 10 10 10 10 10 10 10 11 11 11 11 10 10 10 10 10 10 10 10 10 9 9 9 9 9 10 10 10 10 10 10 10 11 11 11 11 11 11 11 11 11 11 11 11 11 11 11 11 11 11 10 10 10 10 10 11 11 11 11 11 11
10 9 9 9 9 10 10 10 10 10 10 10 10 10 11 10 10 10 10 10 10 10 9 9 9 9 9 10 10 10 10 10 10 10 10 10 10 11 11 11 11 11 11 11 11 11 11 11 11 11 11 11 11 11 11 10 10 10 10 11 11 11 11
9 8 8 9 9 9 10 10 10 10 10 10 10 10 11 11 10 10 10 10 10 10 10 9 9 10 10 10 10 10 10 10 10 10 10 10 10 10 10 11 11 11 11 11 11 11 11 11 11 11 11 11 11 11 11 11 11 11 11 11 11 11 11
8 8 8 9 9 9 9 10 10 10 10 10 10 10 10 10 10 10 10 10 10 10 10 10 10 10 10 10 10 10 10 10 10 10 10 10 10 9 10 10 11 11 11 11 11 10 11 11 11 11 11 11 11 11 11 11 11 11 11 11 11 11 11
7 8 8 8 9 9 9 9 10 10 10 10 10 10 10 10 10 10 10 10 10 10 10 10 10 10 10 10 10 10 10 10 10 10 10 10 10 10 9 10 10 10 11 11 11 11 10 10 11 11 11 11 11 11 11 11 11 11 11 11 11 11 11
7 8 8 8 8 9 9 9 9 9 10 10 9 9 9 10 10 9 9 9 9 9 10 10 10 10 10 10 9 9 10 9 9 10 10 10 10 10 10 10 10 10 10 10 11 11 11 10 10 11 11 11 11 11 11 11 12 12 12 11 11 11 11
7 8 8 8 8 8 8 9 9 9 9 10 10 9 9 10 9 9 9 9 9 9 10 10 10 10 10 10 10 9 9 9 10 10 10 10 11 10 10 10 11 10 10 10 10 10 11 10 10 10 11 11 11 11 11 11 11 11 11 11 11 11 11
8 8 8 8 8 8 8 8 8 8 9 9 9 9 9 10 9 9 9 9 10 10 10 10 10 10 10 10 9 9 9 9 10 10 10 10 10 10 11 11 11 11 10 10 10 10 10 10 10 10 10 11 11 11 12 12 11 11 11 11 11 11 11
8 8 8 8 9 9 9 8 8 8 8 8 8 9 9 9 9 9 9 9 9 10 10 10 10 10 10 10 10 9 9 10 10 10 10 10 10 10 10 10 10 10 10 10 10 10 10 10 10 10 10 10 10 10 11 11 11 11 11 11 11 11 11
8 7 7 8 8 8 9 9 8 8 8 8 8 9 9 9 9 9 9 9 9 10 10 10 10 10 10 10 10 10 10 10 10 10 10 10 11 10 10 10 10 10 10 10 10 10 10 10 10 10 10 10 10 10 10 10 10 10 10 10 10 11 11
7 7 7 7 7 7 8 8 8 9 8 8 8 8 9 9 9 9 10 10 9 9 9 9 9 10 10 10 10 10 10 10 10 11 11 11 11 11 11 10 10 10 10 10 10 10 10 10 10 10 10 10 10 10 10 9 9 9 9 10 10 10 10
6 6 6 6 7 7 7 7 8 8 8 8 8 8 9 9 8 9 9 9 9 8 8 8 8 9 9 9 10 10 10 10 10 10 10 10 11 11 10 10 10 10 10 10 10 10 10 10 10 10 10 10 10 10 10 9 9 9 9 10 10 10 10
5 6 6 6 6 6 7 7 7 7 7 8 8 8 8 8 8 8 8 8 8 8 8 8 8 8 8 9 9 9 9 9 9 10 10 10 10 10 10 10 10 10 10 10 10 10 10 10 10 10 10 10 10 10 10 10 10 10 10 10 10 11 11
5 6 6 6 6 6 7 7 7 7 7 7 7 8 8 8 8 8 8 8 8 8 8 8 8 8 8 8 8 8 9 9 9 9 9 9 9 9 9 10 10 10 10 10 10 10 10 9 9 9 9 9 10 10 10 10 10 11 11 10 10 10 10
6 6 6 5 6 6 6 6 7 7 6 6 7 7 7 7 7 8 8 8 8 8 8 8 8 8 8 8 8 8 8 8 8 8 8 8 9 9 9 9 9 10 10 10 10 9 9 9 9 9 9 9 9 9 10 10 10 10 10 10 10 10 10
6 6 5 5 6 6 6 6 6 6 6 7 7 7 7 7 7 7 8 8 8 8 8 8 8 8 8 8 8 8 8 8 8 8 9 9 9 9 9 9 9 9 9 9 9 9 9 9 9 9 9 9 9 9 9 10 10 10 10 10 9 10 10
5 5 5 5 5 6 6 6 6 6 6 7 7 7 7 7 7 7 7 8 8 8 8 8 8 8 8 8 8 8 8 8 9 9 9 9 9 9 9 9 9 9 9 9 9 9 9 9 9 9 9 9 9 9 9 10 10 10 10 9 9 10 10
5 4 4 5 5 5 5 6 6 6 6 7 7 7 7 7 7 7 7 8 8 8 8 8 8 8 8 8 8 8 8 8 8 9 9 9 9 9 9 9 9 9 9 9 9 9 9 9 9 9 9 9 9 9 10 10 10 10 10 10 10 10 10
5 4 4 5 5 5 5 5 5 6 6 6 6 7 7 7 7 7 7 7 7 8 8 8 8 8 8 8 8 8 8 8 8 9 9 9 9 9 9 9 9 9 9 9 9 9 9 9 9 9 9 9 9 9 9 10 10 10 10 10 10 10 10
4 4 4 4 5 5 5 5 5 6 6 6 6 6 6 7 7 7 7 7 7 8 8 8 8 8 8 8 8 8 8 9 9 9 9 9 9 9 9 9 9 9 9 9 9 9 9 9 9 9 9 9 9 9 9 9 9 9 9 9 10 10 10
4 4 4 4 4 5 5 5 5 6 6 6 6 6 7 7 7 7 7 7 7 8 8 8 8 8 8 8 8 8 8 9 9 9 9 9 9 9 9 9 9 9 9 10 10 10 10 9 10 10 10 9 9 9 9 9 9 9 9 9 10 10 10
4 4 4 4 4 5 5 5 5 5 6 6 6 6 7 7 7 7 7 7 8 8 8 8 8 8 8 8 9 9 9 9 9 9 9 9 9 9 9 9 9 10 10 10 10 10 10 10 10 10 10 10 10 9 9 9 9 9 9 9 9 9 10
4 4 4 4 4 4 4 5 5 5 5 5 6 6 6 6 7 7 7 7 8 8 8 8 8 8 8 8 8 9 9 9 9 9 9 9 9 9 9 9 9 10 10 10 10 10 10 10 10 10 10 10 10 10 10 10 10 9 9 9 9 9 9
4 4 4 4 4 4 4 4 4 4 5 5 5 5 5 6 6 6 7 7 7 7 8 8 8 8 8 8 8 8 9 9 9 9 9 9 9 9 9 9 9 9 9 9 10 10 10 10 10 10 10 10 11 11 11 10 10 10 9 9 9 9 9
3 3 4 4 4 4 4 4 4 4 4 4 4 5 5 5 5 6 6 6 6 7 7 7 8 8 8 8 8 8 8 8 8 9 9 9 9 9 9 9 9 9 9 9 9 9 9 10 10 10 10 10 11 11 11 11 10 10 10 10 9 9 9
3 3 3 3 3 3 3 3 4 4 4 4 4 4 4 4 5 5 5 5 6 6 6 7 7 7 7 7 7 8 8 8 8 8 8 8 9 9 9 9 9 9 9 9 9 9 9 9 9 9 9 10 10 10 10 11 11 11 10 10 10 10 9
3 3 3 3 3 3 3 3 3 3 3 3 4 4 4 4 4 4 5 5 5 5 6 6 6 6 7 7 7 7 7 7 8 8 8 8 8 8 9 9 9 9 9 9 9 9 9 9 9 9 9 9 9 10 10 10 11 11 10 10 10 10 10
Height
3181 3183 3184 3186 3188 3190 3192 3194 3197 3200 3202 3205 3206 3207 3209 3210 3212 3215 3217 3219 3220 3222 3224 3226 3227 3229 3231 3233 3234 3235 3236 3237 3238 3238 3239 3240 3241 3242 3243 3244 3245 3245 3246 3246 3247 3248 3249 3249 3250 3251 3251 3252 3252 3253 3253 3254 3255 3255 3256 3256 3257 3257 3258
3179 3181 3183 3184 3186 3187 3189 3192 3195 3198 3200 3202 3204 3205 3206 3208 3209 3213 3216 3217 3218 3219 3221 3223 3225 3227 3229 3231 3232 3234 3235 3236 3237 3238 3239 3240 3241 3242 3243 3243 3244 3245 3245 3246 3247 3247 3248 3249 3250 3251 3251 3252 3252 3253 3254 3254 3255 3255 3256 3257 3257 3257 3258
3177 3179 3180 3181 3183 3186 3188 3190 3193 3195 3197 3199 3200 3202 3204 3206 3208 3212 3215 3216 3217 3217 3218 3221 3223 3225 3227 3229 3231 3232 3234 3235 3236 3237 3238 3239 3240 3241 3242 3243 3244 3245 3245 3246 3247 3247 3248 3249 3250 3250 3251 3252 3252 3253 3253 3254 3254 3255 3256 3256 3257 3257 3258
3175 3175 3177 3179 3182 3184 3185 3186 3188 3190 3193 3195 3197 3199 3202 3205 3207 3210 3213 3215 3216 3218 3218 3219 3221 3223 3225 3227 3228 3230 3232 3233 3234 3236 3237 3238 3239 3240 3241 3242 3243 3244 3245 3246 3246 3247 3248 3248 3249 3250 3251 3251 3252 3253 3253 3254 3254 3255 3255 3256 3257 3257 3257
3172 3172 3175 3178 3181 3181 3183 3185 3186 3189 3192 3194 3196 3198 3200 3203 3206 3208 3211 3213 3214 3217 3218 3219 3219 3220 3222 3224 3226 3228 3230 3232 3233 3234 3235 3237 3238 3239 3240 3241 3242 3244 3245 3245 3246 3247 3247 3248 3249 3250 3250 3251 3252 3253 3253 3254 3254 3255 3256 3256 3257 3257 3258
3171 3171 3174 3177 3178 3180 3183 3187 3189 3191 3193 3194 3195 3197 3199 3202 3204 3206 3209 3211 3212 3214 3216 3218 3219 3219 3220 3221 3224 3226 3228 3230 3231 3233 3234 3235 3236 3238 3239 3240 3241 3242 3244 3245 3246 3247 3247 3248 3248 3249 3250 3251 3252 3252 3253 3253 3254 3255 3255 3256 3256 3257 3258
3168 3169 3173 3177 3178 3179 3182 3185 3186 3189 3191 3193 3195 3196 3197 3200 3202 3204 3206 3208 3210 3211 3213 3215 3216 3218 3219 3219 3221 3223 3225 3227 3229 3231 3232 3234 3235 3236 3238 3239 3240 3241 3243 3244 3245 3246 3247 3248 3248 3249 3250 3251 3251 3252 3253 3253 3254 3255 3255 3256 3256 3257 3258
3166 3167 3171 3176 3177 3176 3178 3182 3184 3186 3188 3190 3191 3192 3194 3197 3199 3201 3204 3205 3207 3208 3210 3212 3213 3214 3216 3217 3219 3221 3223 3225 3227 3229 3230 3232 3233 3235 3236 3238 3239 3240 3241 3243 3244 3245 3246 3247 3248 3248 3249 3250 3251 3252 3252 3253 3254 3255 3255 3256 3256 3257 3257
3165 3166 3170 3174 3175 3175 3176 3180 3183 3184 3186 3187 3188 3188 3191 3193 3196 3197 3199 3201 3203 3205 3206 3208 3210 3211 3213 3215 3217 3219 3221 3223 3224 3226 3228 3230 3232 3233 3235 3237 3239 3240 3241 3242 3243 3244 3245 3246 3247 3248 3249 3250 3251 3251 3252 3253 3253 3254 3255 3255 3256 3256 3257
3165 3167 3169 3172 3174 3176 3177 3179 3182 3183 3184 3185 3185 3186 3189 3192 3194 3195 3195 3198 3200 3201 3202 3204 3205 3207 3209 3212 3215 3217 3220 3221 3223 3224 3226 3228 3230 3232 3234 3236 3237 3239 3240 3241 3242 3244 3245 3246 3246 3247 3248 3249 3250 3251 3252 3252 3253 3253 3254 3255 3255 3256 3256
3165 3166 3168 3170 3173 3175 3177 3179 3181 3181 3181 3183 3184 3185 3187 3190 3191 3192 3192 3194 3195 3195 3197 3198 3200 3202 3204 3208 3212 3215 3218 3219 3221 3223 3224 3226 3227 3229 3231 3234 3236 3238 3239 3241 3242 3243 3244 3245 3246 3247 3248 3248 3249 3250 3251 3252 3252 3253 3253 3254 3255 3255 3255
3165 3165 3167 3169 3172 3174 3175 3177 3179 3180 3181 3182 3183 3184 3186 3188 3189 3189 3191 3192 3192 3194 3195 3195 3199 3205 3208 3210 3212 3214 3216 3219 3221 3222 3224 3226 3227 3228 3229 3231 3233 3236 3238 3239 3240 3241 3242 3244 3245 3246 3247 3248 3249 3249 3250 3251 3251 3252 3253 3253 3254 3254 3254
3164 3165 3167 3169 3171 3173 3174 3175 3177 3179 3180 3181 3183 3184 3185 3187 3189 3189 3189 3190 3192 3195 3196 3197 3200 3205 3209 3210 3211 3213 3214 3217 3219 3221 3223 3224 3226 3227 3227 3228 3229 3232 3235 3237 3238 3239 3241 3242 3243 3245 3246 3247 3248 3248 3249 3250 3250 3251 3251 3252 3252 3253 3253
3164 3165 3168 3170 3171 3172 3173 3174 3175 3177 3179 3181 3182 3183 3184 3186 3187 3188 3187 3188 3191 3194 3197 3199 3201 3204 3206 3208 3210 3211 3212 3214 3216 3218 3220 3222 3224 3225 3226 3227 3227 3228 3231 3234 3236 3237 3239 3240 3242 3243 3244 3245 3246 3247 3248 3248 3249 3249 3250 3251 3251 3252 3252
3163 3165 3168 3170 3171 3172 3173 3173 3174 3175 3177 3179 3180 3182 3183 3185 3186 3186 3186 3188 3191 3193 3195 3198 3201 3204 3207 3208 3209 3210 3211 3212 3214 3216 3218 3220 3222 3224 3225 3226 3226 3226 3228 3230 3233 3235 3237 3238 3239 3240 3242 3243 3244 3245 3246 3247 3248 3248 3249 3249 3250 3250 3251
3162 3164 3167 3169 3170 3171 3172 3173 3173 3174 3176 3177 3178 3180 3181 3183 3184 3184 3185 3187 3189 3190 3193 3197 3201 3204 3207 3207 3208 3209 3210 3211 3212 3213 3216 3218 3220 3221 3222 3223 3225 3226 3226 3228 3230 3232 3234 3235 3236 3237 3238 3240 3241 3243 3244 3245 3246 3247 3248 3248 3249 3249 3249
3162 3163 3165 3168 3170 3171 3171 3172 3173 3174 3175 3176 3177 3178 3179 3181 3182 3183 3183 3185 3188 3189 3192 3196 3200 3203 3205 3205 3205 3207 3208 3208 3209 3211 3213 3216 3218 3219 3219 3220 3222 3223 3225 3226 3228 3230 3232 3233 3233 3234 3235 3237 3238 3240 3241 3242 3243 3245 3246 3247 3247 3248 3248
3162 3163 3164 3166 3168 3170 3171 3172 3172 3173 3174 3175 3176 3177 3179 3179 3180 3181 3182 3184 3186 3188 3191 3194 3197 3200 3201 3202 3203 3204 3206 3207 3209 3211 3213 3215 3217 3218 3218 3218 3220 3221 3223 3225 3226 3228 3230 3231 3232 3232 3233 3234 3235 3237 3238 3239 3241 3242 3243 3244 3245 3246 3246
3161 3163 3164 3165 3167 3169 3170 3171 3172 3172 3173 3174 3175 3176 3177 3178 3179 3180 3181 3182 3184 3186 3189 3192 3195 3196 3198 3201 3203 3204 3205 3206 3208 3210 3212 3214 3215 3217 3218 3218 3218 3219 3221 3222 3224 3225 3227 3229 3230 3231 3232 3232 3233 3234 3236 3237 3238 3239 3240 3241 3242 3243 3244
3161 3162 3164 3165 3166 3167 3169 3170 3171 3172 3172 3173 3174 3175 3176 3177 3178 3180 3181 3182 3182 3184 3187 3190 3193 3194 3195 3199 3201 3202 3204 3205 3206 3208 3209 3211 3213 3214 3216 3217 3218 3218 3219 3220 3221 3223 3224 3226 3227 3228 3230 3231 3231 3233 3234 3235 3236 3237 3238 3239 3240 3241 3241
3161 3162 3164 3165 3166 3167 3168 3169 3170 3171 3171 3172 3173 3175 3175 3176 3177 3179 3180 3181 3181 3181 3183 3187 3190 3192 3194 3196 3198 3200 3201 3203 3204 3205 3207 3209 3210 3212 3213 3214 3215 3216 3216 3218 3219 3220 3222 3223 3224 3225 3227 3228 3230 3231 3231 3233 3234 3234 3234 3235 3236 3237 3238
3161 3162 3163 3165 3166 3167 3168 3169 3169 3170 3171 3171 3172 3173 3174 3175 3176 3178 3179 3180 3180 3180 3180 3183 3187 3190 3192 3194 3195 3197 3198 3199 3201 3204 3205 3206 3208 3209 3210 3211 3212 3213 3214 3215 3217 3218 3220 3220 3221 3222 3224 3225 3227 3228 3230 3231 3231 3229 3229 3230 3232 3233 3234
3160 3161 3163 3165 3166 3167 3167 3168 3169 3169 3170 3170 3171 3172 3173 3174 3175 3177 3178 3179 3180 3180 3179 3181 3183 3186 3188 3189 3191 3193 3195 3196 3199 3202 3203 3205 3206 3207 3207 3208 3209 3210 3211 3213 3214 3215 3217 3218 3218 3219 3221 3222 3223 3224 3226 3227 3226 3226 3227 3228 3229 3231 3232
3159 3160 3162 3164 3166 3166 3167 3167 3168 3169 3170 3170 3170 3171 3172 3173 3174 3175 3177 3178 3179 3180 3180 3181 3182 3183 3184 3186 3187 3189 3190 3192 3194 3197 3199 3201 3202 3203 3203 3204 3206 3207 3208 3210 3211 3212 3213 3214 3215 3217 3218 3219 3220 3221 3222 3221 3222 3224 3227 3227 3227 3228 3228
3157 3158 3160 3163 3164 3165 3166 3166 3167 3169 3170 3170 3170 3171 3172 3173 3174 3174 3176 3177 3178 3180 3181 3182 3182 3183 3183 3184 3185 3186 3187 3189 3191 3192 3194 3195 3197 3198 3199 3200 3202 3203 3204 3206 3208 3209 3210 3211 3212 3213 3215 3215 3217 3217 3217 3218 3220 3223 3225 3225 3224 3224 3224
3155 3157 3160 3162 3163 3163 3165 3166 3167 3169 3169 3169 3170 3171 3172 3173 3173 3174 3175 3176 3177 3179 3180 3181 3182 3183 3183 3184 3184 3185 3186 3187 3189 3190 3191 3192 3193 3194 3195 3197 3198 3200 3201 3202 3204 3205 3206 3207 3208 3209 3210 3211 3212 3212 3213 3215 3218 3221 3222 3222 3220 3219 3220
3156 3158 3160 3162 3162 3162 3164 3165 3166 3167 3168 3168 3168 3170 3171 3172 3172 3173 3174 3175 3176 3177 3178 3179 3180 3181 3182 3183 3183 3184 3185 3186 3187 3188 3189 3190 3191 3192 3192 3193 3195 3196 3197 3198 3199 3200 3201 3202 3202 3203 3205 3206 3206 3206 3208 3212 3214 3216 3217 3216 3215 3215 3216
3156 3158 3159 3160 3160 3162 3163 3164 3165 3165 3165 3166 3167 3168 3169 3171 3171 3172 3173 3174 3175 3176 3177 3177 3178 3179 3181 3181 3182 3183 3184 3185 3185 3186 3187 3188 3189 3189 3190 3190 3191 3193 3194 3194 3195 3196 3197 3197 3197 3198 3199 3200 3201 3202 3205 3207 3208 3209 3209 3210 3210 3211 3211
3156 3157 3157 3158 3159 3161 3162 3163 3163 3163 3163 3164 3165 3167 3167 3168 3169 3170 3171 3172 3173 3174 3175 3176 3177 3178 3179 3180 3180 3181 3182 3183 3184 3184 3185 3186 3187 3187 3188 3188 3188 3189 3190 3190 3190 3191 3192 3193 3194 3194 3195 3196 3197 3198 3200 3201 3202 3202 3203 3204 3206 3207 3207
3154 3155 3156 3156 3158 3160 3160 3160 3160 3161 3161 3163 3164 3165 3165 3166 3167 3168 3169 3170 3171 3171 3172 3174 3175 3176 3177 3178 3179 3179 3180 3181 3182 3183 3183 3184 3185 3186 3186 3186 3186 3186 3186 3186 3186 3187 3188 3189 3189 3190 3190 3192 3193 3194 3194 3195 3196 3197 3197 3199 3201 3202 3202
3151 3153 3153 3153 3155 3156 3157 3157 3157 3158 3160 3161 3162 3163 3163 3163 3164 3165 3166 3167 3168 3168 3169 3171 3172 3173 3175 3176 3176 3177 3178 3179 3180 3180 3181 3182 3183 3183 3184 3184 3184 3184 3183 3183 3183 3184 3184 3185 3185 3186 3187 3188 3189 3189 3189 3190 3190 3191 3192 3194 3195 3196 3196
3147 3148 3149 3149 3151 3152 3153 3153 3154 3155 3156 3157 3159 3159 3160 3161 3161 3162 3163 3163 3164 3165 3166 3167 3168 3169 3171 3172 3173 3174 3175 3176 3176 3177 3178 3179 3179 3180 3181 3181 3181 3181 3181 3181 3181 3181 3181 3181 3182 3183 3183 3184 3185 3185 3185 3185 3186 3186 3187 3188 3189 3190 3190
3143 3144 3144 3145 3146 3148 3149 3149 3150 3151 3152 3153 3154 3155 3156 3157 3157 3158 3159 3160 3160 3161 3162 3163 3164 3165 3167 3168 3169 3170 3171 3172 3172 3173 3174 3175 3176 3176 3177 3178 3178 3177 3178 3178 3178 3178 3178 3178 3179 3180 3180 3181 3181 3181 3181 3181 3181 3182 3182 3183 3183 3184 3185
3140 3140 3141 3141 3143 3144 3145 3146 3146 3147 3148 3149 3150 3151 3152 3152 3153 3154 3155 3155 3156 3157 3158 3159 3160 3161 3162 3163 3164 3164 3166 3167 3168 3169 3170 3171 3172 3173 3173 3173 3174 3174 3174 3174 3174 3175 3175 3175 3175 3176 3177 3177 3177 3177 3177 3177 3177 3178 3178 3178 3178 3179 3180
3136 3137 3137 3138 3139 3141 3141 3142 3142 3143 3143 3144 3145 3146 3147 3148 3148 3149 3150 3151 3151 3152 3153 3154 3155 3156 3156 3157 3158 3159 3160 3161 3163 3163 3164 3165 3167 3168 3168 3169 3169 3169 3170 3170 3170 3170 3170 3171 3171 3172 3172 3173 3173 3173 3174 3174 3174 3174 3174 3174 3174 3175 3176
3133 3133 3134 3135 3136 3137 3137 3137 3138 3139 3140 3141 3142 3142 3143 3143 3144 3145 3145 3146 3146 3147 3147 3148 3149 3150 3151 3152 3152 3153 3154 3156 3157 3158 3158 3160 3161 3162 3163 3163 3164 3164 3164 3165 3165 3165 3165 3166 3166 3167 3168 3169 3169 3169 3169 3170 3170 3170 3170 3170 3170 3171 3172
3129 3130 3131 3132 3132 3132 3133 3133 3134 3136 3137 3137 3138 3139 3139 3140 3140 3141 3141 3142 3142 3142 3143 3144 3145 3145 3146 3147 3147 3148 3148 3149 3150 3151 3152 3153 3154 3155 3156 3157 3158 3159 3159 3159 3159 3159 3160 3160 3161 3162 3163 3164 3165 3165 3164 3165 3165 3165 3166 3166 3166 3167 3167
3126 3127 3128 3128 3128 3128 3129 3130 3131 3133 3133 3134 3135 3135 3136 3136 3137 3137 3137 3138 3138 3138 3139 3139 3140 3141 3141 3142 3142 3143 3143 3144 3145 3146 3146 3147 3148 3149 3150 3151 3152 3153 3154 3154 3154 3154 3154 3155 3155 3156 3157 3158 3159 3159 3160 3160 3160 3160 3161 3161 3162 3162 3163
Wind_Speed
22 25 26 28 30 31 33 34 33 31 26 23 24 24 22 20 20 19 19 18 16 15 14 13 13 13 12 12 12 12 13 14 14 14 13 11 10 10 10 11 11 12 12 12 11 11 11 10 8 7 7 7 7 7 7 7 7 7 7 8 8 8 7
20 22 24 27 29 31 32 33 34 32 29 27 27 26 24 21 20 19 20 20 19 17 16 15 14 14 13 13 12 12 12 13 15 14 13 12 11 10 11 11 11 11 11 11 11 12 11 10 9 7 6 6 6 6 7 7 7 7 7 7 6 7 7
17 19 23 25 27 30 31 31 33 33 33 32 30 28 25 22 20 17 18 19 19 19 18 17 16 15 14 14 14 13 12 13 14 14 13 13 12 11 11 11 11 11 12 11 11 11 11 10 9 7 6 6 6 5 6 7 7 7 7 6 6 6 7
17 18 21 23 24 29 31 32 34 36 36 35 32 29 27 24 22 18 17 19 19 18 18 18 17 16 15 15 15 14 13 12 13 14 14 13 13 13 12 12 12 12 12 11 11 11 10 10 9 8 7 6 5 5 6 7 8 7 7 7 7 7 7
19 20 20 21 24 28 31 31 33 33 34 35 33 29 27 25 24 22 19 20 19 18 17 18 19 18 17 16 16 15 14 13 13 13 14 14 14 14 14 13 13 12 12 12 11 11 10 10 9 8 7 6 6 5 5 6 7 7 7 7 6 6 6
19 20 20 21 24 26 27 26 27 27 29 30 29 27 26 26 26 24 22 21 21 19 18 20 20 19 19 18 17 17 16 14 13 13 14 14 14 15 14 14 14 13 13 12 11 10 9 9 9 8 7 7 6 6 6 6 6 7 7 6 6 6 6
22 22 20 20 22 24 23 23 25 26 27 28 27 27 28 27 26 26 24 24 23 20 20 21 22 21 20 20 19 18 17 16 15 14 14 14 14 15 15 15 15 14 14 13 12 11 9 9 9 9 8 8 7 7 7 7 6 6 6 7 7 7 6
26 26 22 21 22 23 24 24 26 27 27 29 30 30 29 28 28 27 25 25 24 22 22 22 23 24 24 22 20 19 19 18 17 16 15 14 14 15 15 16 16 15 15 14 13 12 11 10 10 10 9 9 8 8 8 8 7 7 6 7 7 7 6
25 24 22 24 24 22 21 22 24 27 28 30 31 31 31 30 30 28 27 25 24 24 24 24 24 25 26 24 21 20 20 20 19 18 17 15 14 14 15 16 16 16 16 15 14 13 12 11 10 10 10 10 10 9 9 8 8 7 7 7 6 7 7
21 20 19 23 25 23 21 19 20 25 28 31 32 32 32 30 28 28 27 26 26 27 27 26 27 27 27 25 22 21 21 21 20 20 20 18 16 15 15 15 16 17 16 16 15 14 13 13 12 11 11 11 11 10 10 9 9 9 8 8 7 7 7
19 18 17 19 23 25 23 21 21 24 26 30 31 31 31 29 29 29 28 27 29 30 31 31 31 30 28 26 23 23 23 21 21 21 20 19 18 17 16 15 16 17 17 18 17 16 15 15 14 13 13 12 12 11 11 11 11 10 10 10 10 9 9
15 16 15 14 17 22 22 22 23 23 23 25 26 27 28 28 29 29 27 28 29 30 31 31 29 26 24 23 23 24 23 21 20 20 18 18 18 18 17 17 16 17 18 19 19 18 18 17 16 15 14 14 13 13 13 13 13 12 12 12 12 12 12
12 12 12 11 12 15 18 20 22 22 23 24 24 24 24 25 26 26 26 27 28 28 30 29 26 23 22 23 24 25 24 23 22 20 18 19 19 19 19 19 19 19 19 20 20 20 20 19 18 17 16 16 15 15 15 14 14 14 14 14 14 14 14
12 13 13 13 12 13 15 17 20 22 23 23 23 23 24 24 25 26 27 28 27 28 29 27 25 24 23 24 25 25 26 26 24 23 22 21 21 21 20 20 21 21 21 20 21 21 21 20 19 18 18 17 17 17 17 17 16 16 15 15 16 16 15
13 14 15 15 15 14 14 15 18 20 21 22 22 22 23 23 23 25 26 26 25 26 27 26 25 24 24 25 25 26 26 27 26 26 25 24 24 23 22 21 22 22 22 20 20 21 21 21 20 19 19 18 18 19 19 19 18 17 17 17 17 17 17
13 15 18 18 17 15 15 15 16 17 18 20 21 22 22 22 22 23 24 24 24 24 24 24 24 23 24 25 26 27 27 27 28 27 27 27 26 26 25 23 22 22 22 21 20 21 23 23 23 22 21 19 19 20 20 20 20 19 18 18 18 19 19
12 13 17 19 19 18 18 17 16 16 16 17 20 22 23 22 23 24 24 24 24 23 21 21 21 22 23 23 24 25 26 26 26 26 27 28 28 28 27 25 24 23 21 20 19 19 21 23 24 24 23 21 20 20 21 21 20 20 20 20 20 20 20
12 12 13 17 19 19 19 19 18 17 16 15 17 20 22 22 22 23 24 25 24 23 21 20 20 22 23 23 22 22 23 23 22 20 21 25 28 29 28 26 25 23 22 21 21 19 19 20 22 23 23 22 21 20 21 21 21 21 21 21 21 21 21
14 13 12 13 15 16 17 18 18 17 16 16 17 18 20 21 21 21 22 23 24 24 23 22 22 22 23 23 22 22 22 23 22 19 19 22 25 27 27 27 27 26 25 24 23 22 22 22 21 21 21 21 21 20 19 20 21 22 23 22 21 21 22
15 14 12 11 13 13 14 14 15 17 17 18 18 18 19 20 20 20 21 23 24 25 24 23 22 21 22 23 22 22 23 24 24 23 22 22 22 23 25 26 28 28 28 27 26 25 25 25 25 24 23 22 21 21 21 20 19 20 21 22 21 21 22
14 14 13 12 13 13 14 14 14 15 16 17 17 17 17 17 18 18 20 22 24 24 24 23 22 22 24 24 23 22 23 24 24 23 21 21 21 22 23 25 27 29 29 28 28 27 27 27 28 28 27 25 23 23 23 23 23 22 22 22 22 22 21
13 13 13 13 14 14 14 14 14 14 13 14 15 15 16 15 15 15 15 17 18 18 18 18 18 19 21 23 24 23 23 25 25 23 22 20 20 21 22 23 26 29 31 30 29 29 29 30 30 30 30 28 27 27 25 25 26 28 27 26 25 24 24
13 13 13 13 13 14 14 14 14 14 13 13 13 13 13 13 13 12 13 13 13 12 11 11 12 14 16 18 20 19 20 23 23 23 24 24 23 23 23 23 24 28 31 33 32 31 31 32 33 33 32 31 31 30 29 29 30 31 29 29 28 26 26
15 16 15 13 12 14 14 14 14 13 13 13 12 12 12 11 10 10 10 11 10 10 9 8 7 9 10 12 14 15 16 17 18 20 23 25 26 27 26 25 26 28 31 33 33 33 32 33 33 34 34 34 33 33 33 33 33 32 30 29 29 29 30
21 21 19 15 14 16 15 15 15 13 12 12 12 11 11 10 10 10 9 9 10 9 9 8 7 7 7 8 10 11 13 14 15 18 21 24 26 28 28 28 29 30 31 32 33 33 32 31 31 32 33 34 34 35 36 36 34 33 31 30 31 31 31
26 23 20 17 17 18 17 16 16 14 13 13 13 12 12 10 10 10 9 9 9 9 8 8 8 8 7 7 7 8 9 11 13 15 18 21 24 27 28 29 30 31 32 31 31 31 31 31 30 30 30 32 34 36 36 35 33 32 32 32 33 33 32
26 22 19 18 20 20 19 17 17 16 15 16 16 15 14 13 13 12 12 11 10 9 9 8 8 8 8 7 7 7 7 7 8 9 11 14 17 21 24 27 28 30 31 31 31 31 30 31 30 29 29 30 33 35 34 32 32 31 31 32 33 33 33
23 21 20 21 22 21 19 18 18 19 19 20 19 18 17 16 15 15 15 14 13 11 11 10 10 10 9 9 8 8 7 7 6 6 6 6 8 12 17 21 25 27 29 30 31 30 30 30 30 30 30 30 31 32 31 30 30 30 30 31 32 32 32
20 21 22 24 24 21 20 20 21 22 23 22 21 20 19 19 18 18 17 17 16 15 14 14 13 12 11 10 10 9 9 8 8 7 6 5 5 6 8 13 17 21 24 27 28 29 30 31 32 32 32 32 32 32 31 31 31 30 30 31 31 30 30
20 20 22 24 24 22 23 24 24 24 24 24 22 22 22 22 21 21 20 20 19 19 18 17 16 15 15 14 14 13 12 11 10 10 9 9 7 6 6 8 10 13 16 20 23 25 27 30 31 33 34 35 34 33 34 34 33 32 32 32 30 30 30
26 25 25 26 25 24 25 27 27 27 26 25 25 25 25 26 25 25 24 23 23 23 22 21 20 20 19 19 18 18 17 16 16 15 14 14 13 11 11 10 11 12 13 15 17 18 20 23 25 28 30 32 33 34 35 36 36 36 35 34 32 31 31
30 29 29 28 27 26 26 27 28 28 28 27 27 28 28 29 29 29 29 28 28 27 27 26 26 25 25 24 24 23 23 22 21 21 20 20 19 18 17 16 16 16 16 16 16 16 16 17 18 19 21 23 25 28 31 33 34 34 34 33 32 32 32
29 28 27 27 27 27 27 27 28 28 28 28 28 29 30 30 31 31 31 31 32 32 31 31 31 30 30 30 30 29 29 29 28 27 27 26 25 24 24 23 23 22 22 21 20 20 19 19 18 18 17 17 18 20 23 26 29 30 30 30 30 30 30
27 27 26 26 26 26 26 26 26 27 27 27 28 28 29 29 30 30 31 32 33 33 33 34 34 34 34 34 35 35 35 34 34 33 33 32 31 30 29 29 29 28 28 27 27 26 25 24 23 22 21 20 19 19 20 21 23 26 27 29 29 29 29
27 27 27 27 26 25 25 25 26 26 27 27 27 27 27 28 28 29 30 30 31 32 33 33 34 34 35 36 36 37 37 37 37 37 36 36 35 35 34 34 34 33 33 32 32 32 30 29 28 27 26 25 24 23 22 21 21 23 24 25 27 28 27
26 26 26 26 25 25 25 26 26 26 26 26 25 26 26 27 28 28 29 29 30 31 32 33 33 34 34 35 36 36 36 36 36 37 37 38 38 37 37 37 37 38 38 37 37 37 36 35 33 32 31 30 28 28 27 26 25 24 23 23 24 25 25
25 25 25 25 25 26 26 26 26 25 24 23 23 24 25 25 26 26 27 28 29 30 30 31 32 32 32 33 34 34 35 35 35 35 36 36 37 38 39 39 39 39 40 41 41 41 41 40 39 37 36 34 33 32 32 31 30 29 27 26 25 25 25
23 22 23 24 25 26 26 25 23 22 22 21 22 23 23 24 24 24 25 26 27 28 28 29 29 29 30 30 31 32 32 33 33 33 33 34 34 35 36 37 38 39 40 41 43 44 44 44 43 42 41 40 39 38 36 35 35 34 33 31 29 28 28
Wind_Direction
201 204 207 209 209 207 206 204 206 214 218 212 207 209 214 218 214 200 193 201 205 205 206 206 210 213 213 214 214 214 214 215 216 218 219 219 213 208 204 194 188 185 180 179 176 171 172 169 167 171 166 166 175 177 176 178 180 178 175 175 173 177 184
205 206 209 211 211 209 209 209 210 214 218 215 209 206 207 210 213 203 195 200 202 200 202 205 208 211 212 215 217 217 216 216 217 217 218 219 216 210 207 202 195 189 185 185 180 174 172 169 171 173 164 165 175 175 176 179 181 182 179 175 175 176 176
208 209 210 213 212 210 210 211 211 213 215 215 212 209 209 212 216 211 199 202 206 200 196 199 206 210 210 213 217 218 217 217 217 217 217 218 216 212 210 207 201 193 191 192 185 178 175 171 174 178 168 167 174 170 171 177 182 183 180 179 182 181 176
203 205 208 211 210 209 210 210 210 209 210 213 213 211 213 217 220 219 204 201 209 210 202 198 201 207 209 211 216 218 217 217 216 215 216 217 216 213 212 213 209 199 196 196 190 185 181 176 176 178 175 174 178 173 171 177 181 182 185 186 184 183 179
204 201 201 207 209 211 213 214 214 211 208 212 213 211 214 218 220 224 215 205 209 216 216 209 204 203 204 208 214 218 217 217 215 214 214 215 217 216 213 214 214 209 204 201 196 193 189 182 177 176 179 182 184 177 172 179 182 183 187 186 184 186 184
206 203 200 204 209 212 215 216 219 216 212 215 215 212 215 219 221 221 218 215 215 217 221 220 214 209 205 204 209 215 216 215 213 212 213 213 215 217 215 214 217 216 212 209 205 201 197 190 181 177 182 185 189 185 177 180 184 189 192 188 191 196 189
200 200 195 199 208 212 211 209 211 213 214 214 214 213 215 218 221 219 216 218 219 219 220 220 218 217 213 207 205 210 214 214 212 210 211 212 214 217 217 216 217 218 217 216 213 210 207 200 190 186 190 190 193 193 187 185 186 192 198 195 197 199 191
201 200 191 186 197 209 209 204 206 210 213 213 213 213 214 215 218 218 217 218 220 220 219 218 218 217 216 211 206 207 210 211 211 211 210 209 210 215 218 218 219 221 220 219 219 218 215 209 201 197 198 197 199 201 197 194 191 191 199 202 204 205 201
203 206 197 187 190 202 205 201 204 210 214 216 215 214 214 214 214 213 213 216 220 220 217 218 218 214 211 211 209 208 210 210 208 209 210 209 207 211 216 219 221 224 225 223 223 225 223 220 214 208 207 205 204 207 205 204 201 196 198 205 210 214 216
209 212 206 195 191 197 202 200 202 207 211 214 214 213 213 214 215 213 211 213 217 218 216 217 216 208 204 206 208 210 213 212 210 207 207 206 205 208 213 219 222 225 229 229 228 229 229 229 227 222 219 215 211 211 211 211 213 208 205 208 212 217 220
218 217 213 202 193 195 201 202 201 203 207 211 211 211 211 212 214 214 211 212 215 215 215 215 213 209 204 199 202 210 213 213 213 210 209 206 202 202 206 214 222 225 229 233 233 233 232 232 233 231 230 227 223 221 219 219 220 219 217 217 216 219 221
213 211 211 204 193 197 202 203 204 205 207 213 215 215 216 216 217 215 213 216 219 219 219 217 214 215 214 203 202 209 213 215 216 215 216 217 210 205 203 207 216 223 227 232 235 236 235 234 235 236 236 236 234 232 230 228 227 226 226 227 225 224 224
190 183 187 186 181 188 196 203 206 205 208 216 220 223 224 223 222 219 218 221 224 224 226 224 217 216 218 212 208 210 210 213 217 215 217 223 222 216 211 207 210 217 223 228 233 237 237 236 236 238 239 240 240 240 237 236 234 233 233 235 235 234 232
171 161 168 181 182 180 186 197 204 203 207 215 221 226 227 225 225 226 224 223 225 226 228 229 223 217 215 213 211 213 212 212 214 213 213 220 224 223 221 216 212 212 216 221 227 235 239 238 237 237 240 241 242 243 242 241 239 239 240 242 244 244 242
170 165 167 180 191 194 192 194 199 202 204 209 217 222 224 225 230 234 232 228 228 228 228 230 229 223 220 216 213 215 216 215 217 219 217 219 221 222 223 223 220 218 217 216 218 227 235 240 239 236 236 239 242 244 245 246 245 245 245 248 250 252 251
174 174 175 179 186 196 202 202 203 204 204 209 214 217 220 224 229 235 236 233 232 232 232 236 237 230 226 222 218 218 219 218 220 223 222 220 219 220 221 223 224 225 224 221 218 219 225 232 237 237 234 233 236 240 244 246 248 249 251 253 255 257 257
175 180 184 186 187 193 200 204 209 212 212 215 215 216 219 223 227 231 233 234 236 238 240 244 244 237 230 228 224 221 219 219 221 223 223 221 219 219 221 222 224 226 228 229 227 225 225 227 232 237 237 233 231 234 240 244 246 248 249 251 253 257 260
172 181 184 188 193 198 203 205 209 213 216 217 216 217 220 222 225 228 230 233 235 236 238 239 238 237 236 235 229 222 220 221 224 227 227 226 226 225 223 223 225 227 228 231 232 232 232 232 233 238 242 242 238 234 235 239 243 246 247 247 247 250 255
174 179 180 184 189 193 200 206 209 208 210 211 211 214 219 223 226 226 227 231 232 233 233 230 231 237 240 238 232 227 226 224 225 232 234 232 233 233 229 227 228 228 227 228 230 232 233 236 238 242 247 251 252 249 245 241 240 242 246 247 246 245 247
176 175 176 180 180 179 184 195 202 202 203 207 208 211 217 223 227 228 228 230 232 233 230 224 224 228 230 233 234 232 230 226 227 236 240 238 238 237 234 232 232 232 230 230 231 233 234 235 238 243 247 252 257 260 260 258 253 247 247 249 250 249 248
176 172 173 175 174 176 180 187 195 198 199 201 204 208 212 216 221 223 226 230 232 235 234 230 225 221 220 225 231 233 234 232 232 236 238 238 240 240 239 239 238 237 237 237 237 239 239 239 240 243 245 248 252 254 257 261 262 259 256 256 256 256 255
185 177 176 175 172 174 180 187 193 195 197 200 200 202 205 210 213 211 214 224 231 236 242 243 237 230 227 227 228 229 232 231 231 233 231 230 233 235 236 238 241 240 241 241 241 242 242 243 244 245 246 248 248 248 250 253 252 253 256 258 259 261 263
194 189 185 178 174 176 178 184 190 188 190 197 197 198 200 203 207 203 201 212 218 222 231 238 238 237 238 239 236 233 231 229 228 231 231 229 230 232 232 235 239 242 242 242 242 242 242 244 246 248 250 251 251 250 251 251 249 250 254 259 264 266 267
200 200 194 182 179 184 184 188 191 182 183 192 193 194 196 194 197 196 191 196 200 201 204 210 221 231 237 243 245 243 240 236 233 231 231 231 232 233 234 236 241 244 245 243 243 243 243 244 247 249 251 253 252 251 253 255 254 255 259 264 270 272 270
203 203 195 183 186 194 193 196 195 183 182 195 196 194 196 194 195 196 189 187 189 190 192 190 191 201 213 225 233 237 240 240 238 235 235 235 235 236 236 238 241 245 247 248 246 245 245 247 250 252 252 252 253 254 257 260 261 262 264 267 269 269 268
206 204 196 188 193 199 198 201 203 193 191 204 208 203 201 202 206 212 209 203 199 197 197 195 190 190 194 199 207 218 227 231 233 235 237 238 239 238 238 238 239 242 246 248 249 249 249 252 255 255 254 254 254 254 256 262 266 268 268 267 266 266 265
209 205 198 196 201 204 202 204 210 210 209 216 219 215 211 208 212 222 226 225 223 217 213 214 211 205 202 204 205 208 212 218 223 228 234 239 240 240 240 240 241 243 244 246 248 250 252 255 257 258 257 257 257 257 259 265 271 272 269 266 266 268 268
214 209 206 205 206 208 207 207 215 220 220 222 224 226 224 219 218 224 230 232 233 230 226 228 230 228 223 219 217 218 218 220 222 222 222 225 231 236 238 239 241 243 244 247 248 248 250 253 256 258 258 258 260 262 264 267 269 269 266 263 264 267 269
213 212 214 215 213 212 213 215 220 224 226 227 227 230 233 232 230 230 233 235 237 237 234 232 234 238 239 238 236 234 231 230 232 234 232 225 218 222 229 233 238 241 243 246 248 248 249 251 253 255 257 257 259 261 264 265 266 267 267 266 267 270 270
225 222 228 230 226 222 221 223 226 228 230 233 235 236 238 240 240 238 238 239 241 242 242 240 238 238 240 243 247 249 247 247 246 246 247 247 241 235 232 234 237 240 243 245 247 248 249 251 253 255 256 257 258 259 261 263 265 266 268 269 270 271 270
247 246 247 246 242 236 231 230 232 234 236 238 240 242 243 245 246 247 246 246 246 246 247 247 247 245 244 244 247 249 252 254 254 255 256 256 254 252 248 247 248 248 247 247 246 247 250 252 254 255 257 257 258 259 260 263 265 266 267 268 268 266 265
255 255 254 251 248 245 242 242 243 244 244 246 246 246 247 248 249 250 251 251 251 251 251 252 252 252 251 250 250 250 251 253 254 255 256 257 257 257 255 253 254 253 253 254 254 253 254 256 257 259 260 260 259 259 260 261 263 266 267 268 267 264 263
254 255 255 254 252 250 251 253 254 254 254 254 253 252 251 252 251 251 251 252 252 252 253 254 255 255 255 255 255 254 254 253 253 253 254 255 257 259 260 259 259 260 260 261 262 262 263 265 266 268 268 266 263 261 260 260 261 263 265 266 266 264 262
255 256 257 257 256 255 256 257 258 259 258 258 257 256 256 255 255 254 253 253 253 253 253 253 254 254 255 256 256 256 256 256 255 255 255 255 255 256 257 259 260 262 263 264 265 265 266 267 269 270 270 269 268 266 265 264 264 263 262 263 263 262 260
256 256 257 257 258 258 258 258 258 258 259 259 260 260 260 259 258 258 257 256 256 255 255 255 254 254 254 254 255 255 255 255 256 256 256 256 255 254 254 255 256 258 260 261 263 263 263 263 264 265 265 267 268 268 267 267 266 265 263 262 261 260 259
256 256 258 259 260 259 258 258 258 259 260 261 261 261 261 261 261 260 260 260 259 258 258 257 256 256 256 256 256 257 256 256 256 255 255 255 255 254 253 253 253 255 256 257 259 259 260 260 260 260 261 263 265 267 268 268 267 265 264 264 263 262 260
256 256 257 258 258 258 258 258 259 259 259 259 259 259 259 259 260 261 261 261 261 260 259 259 259 259 258 258 258 259 258 258 257 256 256 255 254 254 253 252 252 253 254 255 256 257 258 258 258 259 259 260 260 261 263 265 266 266 266 265 264 264 263
255 254 253 254 254 254 255 256 256 256 255 254 254 254 255 256 257 258 259 259 260 260 260 260 260 260 259 259 260 260 260 260 259 259 259 258 256 256 255 254 253 253 253 254 255 256 256 257 256 257 257 257 258 258 258 260 262 264 265 265 263 262 262